Location: Sears
(37.7625°N, 100.1060°W)
Time: 06:46:16
(UTC+00:00)

Envisat - Visible Passes

Search period start: 30 July 2021 00:00
Search period end: 09 August 2021 00:00
Orbit: 764 x 766 km, 98.2° (Epoch: 29 July)

Date Brightness Start Highest point End Pass type
(mag) Time Alt. Az. Time Alt. Az. Time Alt. Az.
30 Jul 5.4 11:03:33 10° NE 11:07:38 24° E 11:11:41 10° SSE visible
02 Aug 5.6 10:52:33 10° NE 10:56:03 19° E 10:59:33 10° SE visible
04 Aug 4.9 11:17:01 10° NNE 11:21:35 33° E 11:26:08 10° SSE visible
05 Aug 5.8 10:41:46 10° ENE 10:44:28 14° E 10:47:08 10° ESE visible
07 Aug 5.3 11:05:49 10° NE 11:10:02 26° E 11:14:13 10° SSE visible
08 Aug 6.1 10:31:43 10° ENE 10:32:50 11° E 10:33:57 10° ESE visible
